Location: Unspecified
(0.0000°N, 0.0000°E)
Time: 00:26:11
(UTC+00:00)

S-56A Canister/Altair - Pass Details

Date: 07 October 2020
Orbit: 633 x 2499 km, 38.9° (Epoch: 25 October)

Event Time Altitude Azimuth Distance (km) Brightness Sun altitude
Rises 20:55:34 0° 302° (WNW) 5,314 12.3 -46.7°
Reaches altitude 10° 20:59:39 10° 297° (WNW) 4,024 11.6 -47.7°
Enters shadow 21:05:24 32° 279° (W) 2,273 10.1 -49.1°
